GW1296 Weather Reports


Display with metric or nautical units.
time (UTC)temp
F
wind
direction
speed
MPH
gust
MPH
rain 1hr
in
rain 24hr
in
rain mn
in
humidity
%
barometer
mb
20260505183058 53 56 0.0 5.0 0.00 0.00 0.00 71 1017.1
20260505181557 54 93 2.0 5.0 0.00 0.00 0.00 69 1017.2
20260505180056 55 66 0.0 2.0 0.00 0.00 0.00 68 1017.1
20260505174556 55 111 0.0 2.0 0.00 0.00 0.00 68 1017.2
20260505174543 55 0 0.0 2.0 0.00 0.00 0.00 68 1016.0
20260505173054 54 128 0.0 3.0 0.00 0.00 0.00 68 1017.4
20260505173042 54 0 0.0 5.0 0.00 0.00 0.00 68 1016.1
20260505171554 55 58 0.0 5.0 0.00 0.00 0.00 68 1017.4
20260505171542 55 58 0.0 5.0 0.00 0.00 0.00 67 1016.0
20260505170054 56 125 1.0 4.0 0.00 0.00 0.00 67 1017.4
20260505170040 56 115 0.0 3.0 0.00 0.00 0.00 67 1016.0
20260505164549 54 24 0.0 3.0 0.00 0.00 0.00 70 1017.6
20260505164540 54 32 1.0 3.0 0.00 0.00 0.00 70 1016.2
20260505163048 52 76 1.0 4.0 0.00 0.00 0.00 71 1017.7
20260505163033 52 0 1.0 4.0 0.00 0.00 0.00 71 1016.3
20260505161547 52 117 0.0 4.0 0.00 0.00 0.00 73 1017.8
20260505161540 52 118 0.0 4.0 0.00 0.00 0.00 72 1016.4
20260505153048 53 135 1.0 4.0 0.00 0.00 0.00 73 1017.8
20260505153036 53 0 1.0 5.0 0.00 0.00 0.00 73 1016.5
20260505151544 53 65 3.0 6.0 0.00 0.00 0.00 75 1017.8
20260505151536 53 66 2.0 7.0 0.00 0.00 0.00 74 1016.5
20260505124536 53 69 1.0 9.0 0.00 0.00 0.00 72 1016.8
20260505124532 53 57 1.0 9.0 0.00 0.00 0.00 72 1017.8
20260505123049 52 15 2.0 7.0 0.00 0.00 0.00 71 1016.8
20260505123040 52 22 2.0 6.0 0.00 0.00 0.00 71 1018.0
20260505121535 52 60 1.0 6.0 0.00 0.00 0.00 74 1016.8
20260505121532 52 59 1.0 6.0 0.00 0.00 0.00 74 1018.0
20260505120048 51 95 1.0 4.0 0.00 0.00 0.00 79 1016.8
20260505120039 51 96 1.0 5.0 0.00 0.00 0.00 79 1018.0
20260505114551 51 86 1.0 4.0 0.00 0.00 0.00 80 1016.8
20260505114528 51 95 1.0 4.0 0.00 0.00 0.00 80 1018.0
20260505113128 51 61 1.0 5.0 0.00 0.00 0.00 80 1018.0
20260505113036 51 67 1.0 5.0 0.00 0.00 0.00 79 1016.9
20260505111533 52 1.0 5.0 0.00 0.00 0.00 79 1016.9
20260505101544 0 0.0 0.0 0.00 0.00 0.00 1016.8
20260505101529 53 291 1.0 3.0 0.00 0.00 0.00 72 1018.0
20260505100035 53 286 2.0 4.0 0.00 0.00 0.00 71 1017.1
20260505100030 53 284 2.0 5.0 0.00 0.00 0.00 72 1018.1
20260505094540 0 0.0 0.0 0.00 0.00 0.00 78 1017.1
20260505094521 52 350 1.0 6.0 0.00 0.00 0.00 78 1018.2
20260505093046 0 0.0 0.0 0.00 0.00 0.00 1017.1
20260505093017 51 281 1.0 5.0 0.00 0.00 0.00 80 1018.2
20260505091544 51 286 2.0 5.0 0.00 0.00 0.00 81 1017.1
20260505091513 51 355 1.0 5.0 0.00 0.00 0.00 81 1018.3
20260505090048 51 295 2.0 7.0 0.00 0.00 0.00 81 1017.1
20260505090008 51 314 2.0 6.0 0.00 0.00 0.00 81 1018.2
20260505084535 50 315 0.0 6.0 0.00 0.00 0.00 82 1017.1
20260505084511 50 281 1.0 6.0 0.00 0.00 0.00 83 1018.2
20260505083043 50 267 0.0 4.0 0.00 0.00 0.00 83 1017.1
20260505083015 50 267 0.0 4.0 0.00 0.00 0.00 84 1018.3
20260505081546 50 265 1.0 6.0 0.00 0.00 0.00 84 1017.1
20260505081504 50 261 1.0 6.0 0.00 0.00 0.00 84 1018.3
20260505080107 49 286 0.0 5.0 0.00 0.00 0.00 85 1018.3
20260505080050 49 0 0.0 6.0 0.00 0.00 0.00 84 1017.1
20260505074558 49 274 1.0 4.0 0.00 0.00 0.00 85 1018.2
20260505074539 49 263 1.0 4.0 0.00 0.00 0.00 85 1017.1
20260505073100 49 263 1.0 6.0 0.00 0.00 0.00 86 1018.2
20260505073050 49 263 1.0 6.0 0.00 0.00 0.00 85 1017.1
20260505071607 48 259 1.0 5.0 0.00 0.00 0.00 86 1018.2
20260505071534 48 259 1.0 5.0 0.00 0.00 0.00 86 1017.1
20260505070052 48 256 1.0 6.0 0.00 0.00 0.00 86 1018.3
20260505070050 48 255 2.0 6.0 0.00 0.00 0.00 85 1017.1
20260505064546 48 245 1.0 4.0 0.00 0.00 0.00 87 1018.3
20260505064532 48 245 1.0 4.0 0.00 0.00 0.00 86 1017.1
20260505063050 48 241 1.0 4.0 0.00 0.00 0.00 87 1018.3
20260505063034 48 255 1.0 4.0 0.00 0.00 0.00 87 1017.0
20260505061539 48 248 0.0 4.0 0.00 0.00 0.00 88 1018.1
20260505061536 48 0 0.0 4.0 0.00 0.00 0.00 87 1017.0
20260505060053 47 250 2.0 5.0 0.00 0.00 0.00 87 1018.1
20260505060036 47 241 2.0 5.0 0.00 0.00 0.00 87 1016.9
20260505054534 47 217 1.0 7.0 0.00 0.00 0.00 87 1017.1
20260505054532 47 224 1.0 7.0 0.00 0.00 0.00 88 1018.2
20260505053040 47 246 2.0 6.0 0.00 0.00 0.00 87 1017.1
20260505053029 47 247 2.0 6.0 0.00 0.00 0.00 88 1018.2
20260505051536 47 256 2.0 5.0 0.00 0.00 0.00 87 1017.0
20260505051528 47 256 2.0 4.0 0.00 0.00 0.00 88 1018.2
20260505050117 47 259 2.0 6.0 0.00 0.00 0.00 87 1017.0
20260505041548 47 245 1.0 4.0 0.00 0.00 0.00 86 1016.9
20260505041523 47 245 1.0 4.0 0.00 0.00 0.00 87 1018.0
20260505040051 47 228 0.0 6.0 0.00 0.00 0.00 86 1017.0
20260505040024 47 228 0.0 5.0 0.00 0.00 0.00 87 1018.0
20260505034532 47 231 1.0 6.0 0.00 0.00 0.00 86 1016.9
20260505034521 47 236 1.0 6.0 0.00 0.00 0.00 87 1018.1
20260505033036 47 242 1.0 4.0 0.00 0.00 0.00 86 1017.0
20260505033020 47 242 1.0 4.0 0.00 0.00 0.00 86 1018.2
20260505031546 47 256 1.0 4.0 0.00 0.00 0.00 86 1017.0
20260505031518 47 256 1.0 4.0 0.00 0.00 0.00 86 1018.2
20260505030042 47 0 0.0 6.0 0.00 0.00 0.00 86 1017.0
20260505030017 47 255 0.0 6.0 0.00 0.00 0.00 87 1018.2
20260505024540 47 252 2.0 6.0 0.00 0.00 0.00 86 1017.1
20260505024518 47 253 2.0 6.0 0.00 0.00 0.00 87 1018.3
20260505023043 46 265 2.0 6.0 0.00 0.00 0.00 86 1017.0
20260505023015 46 265 2.0 5.0 0.00 0.00 0.00 87 1018.3
20260505021539 46 273 2.0 7.0 0.00 0.00 0.00 86 1017.1
20260505021515 46 263 2.0 7.0 0.00 0.00 0.00 86 1018.4
20260505020039 46 273 2.0 6.0 0.00 0.00 0.00 85 1017.2
20260505020014 46 266 2.0 6.0 0.00 0.00 0.00 86 1018.4
20260505014600 46 259 2.0 5.0 0.00 0.00 0.00 86 1017.2
20260505014527 46 244 2.0 5.0 0.00 0.00 0.00 86 1018.4
20260505013042 46 261 1.0 4.0 0.00 0.00 0.00 85 1017.3
20260505013013 46 261 1.0 4.0 0.00 0.00 0.00 86 1018.5
20260505011536 45 260 1.0 3.0 0.00 0.00 0.00 85 1017.3
20260505011510 45 260 1.0 3.0 0.00 0.00 0.00 86 1018.4
20260505010034 45 250 0.0 3.0 0.00 0.00 0.00 85 1017.3
20260505010007 45 250 1.0 3.0 0.00 0.00 0.00 86 1018.5
20260505004544 46 254 1.0 2.0 0.00 0.00 0.00 85 1017.4
20260505004508 46 254 1.0 2.0 0.00 0.00 0.00 86 1018.4
20260505003040 46 0 0.0 3.0 0.00 0.00 0.00 86 1017.3
20260505003004 46 259 0.0 3.0 0.00 0.00 0.00 86 1018.4
20260505001533 46 0 0.0 1.0 0.00 0.00 0.00 86 1017.3
20260505001503 46 272 0.0 1.0 0.00 0.00 0.00 86 1018.5
20260505000040 46 0 0.0 2.0 0.00 0.00 0.00 86 1017.4
20260505000002 46 272 0.0 2.0 0.00 0.00 0.00 86 1018.6
20260504234600 46 272 0.0 1.0 0.00 0.00 0.00 86 1018.5
20260504234541 46 0 0.0 1.0 0.00 0.00 0.00 85 1017.4
20260504233201 47 272 0.0 1.0 0.00 0.00 0.00 85 1018.5
20260504233040 47 0 0.0 1.0 0.00 0.00 0.00 84 1017.3
20260504231555 47 272 0.0 3.0 0.00 0.00 0.00 85 1018.3
20260504231531 47 0 0.0 3.0 0.00 0.00 0.00 85 1017.2
20260504230052 47 323 0.0 2.0 0.00 0.00 0.00 87 1018.3
20260504230039 47 0 0.0 2.0 0.00 0.00 0.00 87 1017.2
20260504224551 47 17 0.0 2.0 0.00 0.00 0.00 89 1018.4
20260504224548 47 17 0.0 2.0 0.00 0.00 0.00 89 1017.2
20260504223102 47 34 0.0 0.0 0.00 0.00 0.00 90 1018.4
20260504223038 47 0 0.0 2.0 0.00 0.00 0.00 89 1017.2
20260504221551 47 34 0.0 1.0 0.00 0.00 0.00 90 1018.3
20260504221536 47 0 0.0 1.0 0.00 0.00 0.00 90 1017.3
20260504220049 47 34 0.0 1.0 0.00 0.00 0.00 90 1018.5
20260504220040 47 0 0.0 0.0 0.00 0.00 0.00 90 1017.3
20260504214547 47 34 0.0 0.0 0.00 0.00 0.00 89 1018.4
20260504214540 47 0 0.0 0.0 0.00 0.00 0.00 88 1017.3
20260504213055 48 0 0.0 0.0 0.00 0.00 0.00 88 1017.3
20260504213046 48 34 0.0 0.0 0.00 0.00 0.00 88 1018.3
20260504211618 49 34 0.0 0.0 0.00 0.00 0.00 87 1018.2
20260504211537 49 0 0.0 0.0 0.00 0.00 0.00 87 1017.2
20260504210046 49 34 0.0 0.0 0.00 0.00 0.00 87 1018.3
20260504210033 49 0 0.0 0.0 0.00 0.00 0.00 86 1017.4
20260504204539 50 34 0.0 0.0 0.00 0.00 0.00 86 1018.3
20260504204534 50 0 0.0 0.0 0.00 0.00 0.00 85 1017.4
20260504203040 51 0 0.0 0.0 0.00 0.00 0.00 83 1017.3
20260504203038 51 34 0.0 0.0 0.00 0.00 0.00 84 1018.3
20260504201540 52 0 0.0 0.0 0.00 0.00 0.00 83 1017.2
20260504201538 52 34 0.0 0.0 0.00 0.00 0.00 83 1018.3
20260504200037 52 34 0.0 1.0 0.00 0.00 0.00 83 1018.3
20260504194539 53 34 0.0 2.0 0.00 0.00 0.00 83 1018.2
20260504194531 53 0 0.0 2.0 0.00 0.00 0.00 82 1017.1
20260504193037 53 33 0.0 2.0 0.00 0.00 0.00 83 1018.1
20260504191537 53 33 0.0 2.0 0.00 0.00 0.00 83 1018.1
20260504191532 53 33 0.0 2.0 0.00 0.00 0.00 82 1016.9
20260504190041 54 53 0.0 2.0 0.00 0.00 0.00 83 1018.0
20260504184545 54 71 0.0 0.0 0.00 0.00 0.00 82 1017.9
20260504184535 54 0 0.0 0.0 0.00 0.00 0.00 82 1016.6